Mona Airport

Jump to: basic info | weather | comments

Related pages: nearby airports | nearby navaids

Basic information (top)

Location: lon 18.075300, lat -67.931000, elev 1 ft / 0 m msl
Status: small_airport

Weather (top)

Current conditions for Punta Cana International Airport 38nm (71km) NW (rec'd 2014/12/21 00:00Z):

MDPC 210000Z 10004KT 9999 FEW023 25/21 Q1017 NOSIG

Airport forecast for Punta Cana International Airport 38nm (71km) NW (rec'd 2014/12/20 16:11Z):

TAF MDPC 201600Z 2016/2116 10010KT 9999 SCT024

Latest comments (top)

No comments yet for Mona Airport

More... (top)

See also NOTAMs and nearby airports and navaids, or visit the Mona Airport page at the main OurAirports website..